Regional Weather Roundup
Issued by NWS

Home | Current Version | Previous Version | Text Only | Print | Product List | Glossary Off
Versions: 1 2 3 4 5 6 7 8 9 10 11 12 13 14 15 16 17 18 19 20 21 22 23 24 25 26 27 28 29 30 31 32 33 34 35 36 37 38 39 40 41 42 43 44 45 46 47 48 49 50

394
ASUS43 KDTX 280201
RWRMI
MICHIGAN HOURLY REGIONAL WEATHER ROUNDUP
NATIONAL WEATHER SERVICE DETROIT/PONTIAC MI
1000 PM EDT SAT MAY 27 2017

NOTE: "FAIR" INDICATES FEW OR NO CLOUDS BELOW 12,000 FEET WITH NO
SIGNIFICANT WEATHER AND/OR OBSTRUCTION TO VISIBILITY.

MIZ047>049-052>055-059>063-066>070-074>076-081>083-280300-
SOUTHEAST LOWER MICHIGAN

CITY           SKY/WX    TMP DP  RH WIND       PRES   REMARKS
ADRIAN         CLOUDY    66  56  70 SE5       29.90S
ALMA           CLEAR     62  58  85 S5        29.87F
ANN ARBOR      CLEAR     62  56  80 SE3       29.89R
BAD AXE        CLOUDY    59  51  76 CALM      29.91R
CARO           CLEAR     63  57  80 E5        29.88F
DETROIT CITY   CLEAR     65  55  70 S6        29.90R
DETROIT        MOCLDY    65  53  65 S3        29.90R
FLINT          CLEAR     63  55  75 S5        29.87S
GROSSE ILE     CLOUDY    64  52  66 CALM      29.89R
HILLSDALE      CLOUDY    64  55  72 SE3       29.89S
HOWELL         CLOUDY    67  55  64 CALM      29.88F

CITY           SKY/WX    TMP DP  RH WIND       PRES   REMARKS
JACKSON        MOCLDY    66  56  70 S5        29.89S
LAMBERTVILLE   CLOUDY    65  56  73 CALM      29.89R
LANSING        MOCLDY    68  56  65 CALM      29.89R
LAPEER         FAIR      66  56  70 SE5       29.89S
MASON          CLOUDY    65  60  84 CALM      29.89R
MONROE         CLOUDY    63  57  81 CALM      29.88F
MT. CLEMENS    PTCLDY    61  58  91 SE6       29.88R
PONTIAC        MOCLDY    66  55  67 S5        29.88R
PORT HOPE        N/A     56  51  84 S6        29.89R
PORT HURON     CLEAR     59  54  82 CALM      29.91R
TRI CITIES     CLEAR     67  57  70 CALM      29.87F
MIDLAND        FAIR      62  56  80 CALM      29.86F
TROY           CLEAR     67  53  59 CALM      29.91S
SAGINAW HB     CLEAR     66  52  59 CALM      29.86F
$$
MIZ043>046-050>051-056>058-064>065-071>073-077>080-280300-
SOUTHWEST LOWER MICHIGAN

CITY           SKY/WX    TMP DP  RH WIND       PRES   REMARKS
BATTLE CREEK   PTCLDY    67  59  75 SE6       29.87F
BENTON HARBOR  CLOUDY    58  52  80 CALM      29.85F
BIG RAPIDS     CLEAR     63  52  68 CALM      29.86S
COLDWATER      CLEAR     64  58  81 SE3       29.88F
FREMONT        FAIR      64  48  55 W3        29.86R
HOLLAND        CLEAR     60  51  72 CALM      29.86F
GRAND RAPIDS   MOCLDY    66  58  75 CALM      29.85F
IONIA          MOCLDY    67  58  73 SE5       29.85F
KALAMAZOO      PTCLDY    66  58  75 CALM      29.87S
LUDINGTON      CLEAR     55  51  85 CALM      29.84F
MARSHALL       CLOUDY    64  62  94 E3        29.87F
MOUNT PLEASANT CLOUDY    63  56  79 CALM      29.85F
MUSKEGON       PTCLDY    61  50  67 CALM      29.85F
SOUTH HAVEN    CLEAR     58  54  86 CALM      29.85F
$$
MIZ016>042-280300-
NORTHERN LOWER MICHIGAN

CITY           SKY/WX    TMP DP  RH WIND       PRES   REMARKS
ALPENA         CLOUDY    59  52  77 E5        29.89R
BEAVER ISLAND  PTCLDY    54  51  89 SE3       29.85F
BELLAIRE       CLOUDY    60  54  81 CALM      29.85F
CADILLAC       CLEAR     60  55  82 CALM      29.86F
CHARLEVOIX     PTCLDY    59  52  77 CALM      29.88F
FRANKFORT      CLEAR     57  49  74 CALM      29.85S
GAYLORD        CLOUDY    66  53  63 CALM      29.87S
GRAYLING       PTCLDY    62  54  76 CALM      29.87F
HARBOR SPRINGS PTCLDY    55  52  91 CALM      29.85F
HOUGHTON LAKE  MOCLDY    66  57  72 S3        29.87S
MANISTEE       CLEAR     59  52  77 CALM      29.84F
OSCODA         CLEAR     58  49  70 CALM      29.90R
PELLSTON       LGT RAIN  59  52  77 CALM      29.85S
ROGERS CITY    PTCLDY    62  50  65 SE7       29.88R
TRAVERSE CITY  MOCLDY    60  52  74 CALM      29.84F
$$
MIZ007>008-015-280300-
EASTERN UPPER MICHIGAN

CITY           SKY/WX    TMP DP  RH WIND       PRES   REMARKS
KINROSS        MOCLDY    60  50  69 SE9       29.85S
MACKINAC ISLAN MOCLDY    63  50  62 SE7       29.85F
NEWBERRY       CLOUDY    58  49  73 S9        29.84R
S. S. MARIE    CLOUDY    64  52  64 S6        29.85R
MUNISING         N/A     50  49  96 NE6       29.82S
$$
MIZ004>006-011>014-085-280300-
CENTRAL UPPER MICHIGAN

CITY           SKY/WX    TMP DP  RH WIND       PRES   REMARKS
MANISTIQUE     PTCLDY    50  47  90 SE3       29.83F
ESCANABA       PTCLDY    58  50  75 S8        29.80F
SAWYER-GWINN   MOCLDY    55  54  94 NE6       29.82F FOG
$$
MIZ001>003-009>011-084-280300-
WESTERN UPPER MICHIGAN

CITY           SKY/WX    TMP DP  RH WIND       PRES   REMARKS
IRON MOUNTAIN  CLOUDY    67  49  52 N10       29.81R
HOUGHTON       CLOUDY    57  50  77 CALM      29.81R
COPPER HARBOR    N/A     60  53  77 SW10      29.80S
IRONWOOD       CLOUDY    65  46  50 S3        29.83S
$$

ABBREVIATIONS USED IN REMARKS
   TC - TEMPERATURE IN CELSIUS
  WCI - WIND CHILL INDEX
   HX - HEAT INDEX
  VSB - VISIBILITY





USA.gov is the U.S. government's official web portal to all federal, state and local government web resources and services.